Location: Newark
(45.0333°N, 18.2865°E)
Time: 15:29:15
(UTC+00:00)

N. Korean satellite - Visible Passes

Search period start: 20 September 2021 00:00
Search period end: 30 September 2021 00:00
Orbit: 448 x 498 km, 97.3° (Epoch: 19 September)

Date Brightness Start Highest point End Pass type
(mag) Time Alt. Az. Time Alt. Az. Time Alt. Az.
21 Sep 7.7 03:50:20 10° NNE 03:53:45 48° E 03:57:12 10° S visible
22 Sep 9.3 03:23:04 10° NE 03:25:54 22° E 03:28:43 10° SSE visible
23 Sep 10.1 02:57:08 10° ENE 02:57:55 11° E 02:58:43 10° ESE visible
24 Sep 7.0 04:00:11 10° NNE 04:03:43 66° E 04:07:16 10° S visible
25 Sep 8.8 03:32:44 10° NE 03:35:53 29° E 03:39:02 10° SSE visible
26 Sep 9.8 03:05:57 10° ENE 03:07:55 14° E 03:09:54 10° SE visible
27 Sep 6.6 04:10:02 10° NNE 04:13:37 90° ESE 04:17:13 10° SSW visible
28 Sep 8.2 03:42:25 10° NNE 03:45:48 38° E 03:49:12 10° SSE visible
29 Sep 9.6 03:15:17 10° NE 03:17:52 18° E 03:20:27 10° SE visible
